This is the latest recevied weather packets stored in our database for station/object KN6KS. If no packets are shown the sender has not sent any weather packets the latest 10 day(s).
| Time | Temp. | Humidity | Pressure | Rain* | Wind** | Luminosity | Snow |
|---|---|---|---|---|---|---|---|
| 1777989306 | 10° C | 71% | 1011.5 hPa | 0 mm | - | 38 W/m² | - |
| 1777989003 | 10° C | 71% | 1011.6 hPa | 0 mm | - | 33 W/m² | - |
| 1777988699 | 10° C | 71% | 1011.4 hPa | 0 mm | - | 36 W/m² | - |
| 1777988396 | 10° C | 71% | 1011.5 hPa | 0 mm | - | 28 W/m² | - |
| 1777988093 | 10° C | 71% | 1011.5 hPa | 0 mm | - | 24 W/m² | - |
| 1777987788 | 10° C | 70% | 1011.4 hPa | 0 mm | - | 20 W/m² | - |
| 1777987485 | 10° C | 70% | 1011.3 hPa | 0 mm | - | 16 W/m² | - |
| 1777987183 | 10.56° C | 69% | 1011.3 hPa | 0 mm | - | 13 W/m² | - |
| 1777986880 | 10.56° C | 69% | 1011.5 hPa | 0 mm | - | 9 W/m² | - |
| 1777986578 | 10.56° C | 68% | 1011.4 hPa | 0 mm | - | 6 W/m² | - |
| 1777986276 | 10.56° C | 68% | 1011.2 hPa | 0 mm | - | 3 W/m² | - |
| 1777985973 | 10.56° C | 69% | 1011.2 hPa | 0 mm | - | 2 W/m² | - |
| 1777985670 | 10° C | 69% | 1011.3 hPa | 0 mm | - | 0 W/m² | - |
| 1777985366 | 10° C | 70% | 1011.4 hPa | 0 mm | - | 0 W/m² | - |
| 1777985064 | 10° C | 71% | 1011.3 hPa | 0 mm | - | 0 W/m² | - |
| 1777984760 | 10° C | 71% | 1011.5 hPa | 0 mm | - | 0 W/m² | - |
| 1777984456 | 10° C | 71% | 1011.3 hPa | 0 mm | - | 0 W/m² | - |
| 1777984152 | 10° C | 71% | 1011.2 hPa | 0 mm | - | 0 W/m² | - |
| 1777983850 | 10° C | 70% | 1011.1 hPa | 0 mm | - | 0 W/m² | - |
| 1777983546 | 10.56° C | 70% | 1011 hPa | 0 mm | - | 0 W/m² | - |
| 1777983243 | 10° C | 70% | 1011.1 hPa | 0 mm | - | 0 W/m² | - |
| 1777982939 | 10° C | 71% | 1011.1 hPa | 0 mm | - | 0 W/m² | - |
| 1777982636 | 10° C | 71% | 1011.2 hPa | 0 mm | - | 0 W/m² | - |
| 1777982334 | 10° C | 71% | 1011.2 hPa | 0 mm | - | 0 W/m² | - |
| 1777982032 | 10° C | 71% | 1011.5 hPa | 0 mm | - | 0 W/m² | - |
* Rain latest hour (hover to see other rain measurements)
** Current wind speed in m/s (hover to see current wind gust speed)